Location: Big Meadows
(38.5260°N, 78.4400°W)
Time: 05:27:13
(UTC-04:00)

H-2A R/B - Visible Passes

Search period start: 19 April 2015 00:00
Search period end: 29 April 2015 00:00
Orbit: 734 x 839 km, 98.5° (Epoch: 19 April)

Date Brightness Start Highest point End Pass type
(mag) Time Alt. Az. Time Alt. Az. Time Alt. Az.
19 Apr 4.5 00:28:39 17° NW 00:28:39 17° NW 00:29:58 10° NW visible
19 Apr 4.0 22:16:58 15° NE 22:16:58 15° NE 22:18:52 10° NNE visible
19 Apr 3.9 23:57:37 26° NNW 23:57:37 26° NNW 23:59:50 10° NNW visible
20 Apr 3.5 23:26:34 32° N 23:26:34 32° N 23:29:17 10° N visible
21 Apr 3.5 22:55:32 27° NNE 22:55:32 27° NNE 22:58:20 10° N visible
22 Apr 4.5 00:36:10 15° NW 00:36:10 15° NW 00:37:22 10° NW visible
22 Apr 3.9 22:24:29 17° NE 22:24:29 17° NE 22:26:51 10° NNE visible
23 Apr 3.9 00:05:08 26° NW 00:05:08 26° NW 00:07:24 10° NNW visible
23 Apr 3.4 23:34:05 35° N 23:34:05 35° N 23:36:56 10° N visible
24 Apr 3.3 23:03:03 31° NNE 23:03:03 31° NNE 23:06:05 10° N visible
25 Apr 4.5 00:43:41 14° NW 00:43:41 14° NW 00:44:42 10° NW visible
25 Apr 3.7 22:32:00 20° NE 22:32:00 20° NE 22:34:46 10° NNE visible
26 Apr 3.9 00:12:39 25° NW 00:12:39 25° NW 00:14:55 10° NNW visible
26 Apr 4.2 22:00:57 11° ENE 22:00:57 11° ENE 22:02:09 10° NE visible
26 Apr 3.3 23:41:36 37° NNW 23:41:36 37° NNW 23:44:33 10° NNW visible
27 Apr 3.1 23:10:33 36° NNE 23:10:33 36° NNE 23:13:48 10° N visible
28 Apr 4.6 00:51:11 12° WNW 00:51:11 12° WNW 00:51:55 10° NW visible
28 Apr 3.5 22:39:30 24° NE 22:39:30 24° NE 22:42:37 10° NNE visible
